TimeMST,TemperatureF,Dew PointF,Humidity,Sea Level PressureIn,VisibilityMPH,Wind Direction,Wind SpeedMPH,Gust SpeedMPH,PrecipitationIn,Events,Conditions,WindDirDegrees,DateUTC
12:15 AM,33.8,21.2,60,29.89,10.0,ESE,8.1,-,N/A,,Clear,120,2013-02-08 07:15:00
12:35 AM,33.8,21.2,60,29.89,10.0,East,5.8,-,N/A,,Clear,90,2013-02-08 07:35:00
12:55 AM,35.6,21.2,56,29.89,10.0,ESE,8.1,-,N/A,,Clear,120,2013-02-08 07:55:00
1:15 AM,32.0,19.4,60,29.88,10.0,East,6.9,-,N/A,,Clear,90,2013-02-08 08:15:00
1:35 AM,35.6,21.2,56,29.87,10.0,ESE,9.2,-,N/A,,Clear,120,2013-02-08 08:35:00
1:55 AM,35.6,23.0,60,29.87,10.0,SSE,17.3,-,N/A,,Clear,150,2013-02-08 08:55:00
2:35 AM,33.8,21.2,60,29.86,10.0,East,9.2,-,N/A,,Clear,100,2013-02-08 09:35:00
2:55 AM,35.6,23.0,60,29.86,10.0,ESE,9.2,-,N/A,,Partly Cloudy,110,2013-02-08 09:55:00
3:15 AM,35.6,21.2,56,29.85,10.0,East,8.1,-,N/A,,Mostly Cloudy,90,2013-02-08 10:15:00
3:35 AM,35.6,23.0,60,29.84,10.0,ENE,5.8,-,N/A,,Overcast,60,2013-02-08 10:35:00
3:55 AM,35.6,24.8,65,29.82,10.0,East,6.9,-,N/A,,Overcast,80,2013-02-08 10:55:00
4:15 AM,37.4,24.8,60,29.80,10.0,SE,15.0,-,N/A,,Overcast,130,2013-02-08 11:15:00
4:35 AM,35.6,24.8,65,29.79,10.0,SE,18.4,-,N/A,,Mostly Cloudy,140,2013-02-08 11:35:00
4:55 AM,35.6,23.0,60,29.80,10.0,ENE,3.5,-,N/A,,Partly Cloudy,60,2013-02-08 11:55:00
5:15 AM,33.8,21.2,60,29.79,10.0,NNE,3.5,-,N/A,,Clear,30,2013-02-08 12:15:00
5:35 AM,37.4,26.6,65,29.79,10.0,ESE,11.5,21.9,N/A,,Clear,110,2013-02-08 12:35:00
5:55 AM,35.6,24.8,65,29.78,10.0,SE,10.4,-,N/A,,Clear,130,2013-02-08 12:55:00
6:15 AM,35.6,24.8,65,29.77,10.0,ESE,6.9,-,N/A,,Scattered Clouds,120,2013-02-08 13:15:00
6:35 AM,35.6,23.0,60,29.77,10.0,East,3.5,-,N/A,,Mostly Cloudy,80,2013-02-08 13:35:00
6:50 AM,30.2,19.4,64,29.77,15.0,WNW,5.8,-,N/A,,Mostly Cloudy,290,2013-02-08 13:50:00
7:55 AM,30.2,19.4,64,29.75,15.0,WNW,5.8,-,N/A,,Mostly Cloudy,300,2013-02-08 14:55:00
8:56 AM,33.8,21.2,60,29.74,15.0,NW,5.8,-,N/A,,Mostly Cloudy,310,2013-02-08 15:56:00
10:47 AM,41.0,28.4,61,29.71,15.0,Calm,Calm,-,N/A,,Mostly Cloudy,0,2013-02-08 17:47:00
12:48 PM,39.2,28.4,65,29.65,15.0,NW,6.9,-,N/A,,Mostly Cloudy,310,2013-02-08 19:48:00
1:13 PM,37.4,28.4,70,29.67,5.0,SSW,17.3,36.8,N/A,Rain,Light Rain,210,2013-02-08 20:13:00
1:22 PM,35.6,28.4,75,29.68,0.5,SSW,28.8,35.7,N/A,Snow,Snow,210,2013-02-08 20:22:00
1:49 PM,33.8,30.2,87,29.71,0.8,SSW,17.3,-,N/A,Snow,Light Snow,200,2013-02-08 20:49:00
2:28 PM,33.8,33.8,100,29.72,4.0,East,9.2,-,N/A,Snow,Light Snow,100,2013-02-08 21:28:00
2:47 PM,33.8,33.8,100,29.72,0.8,East,8.1,-,N/A,Snow,Light Snow,80,2013-02-08 21:47:00
3:30 PM,33.8,33.8,100,29.69,15.0,NNE,6.9,-,N/A,,Mostly Cloudy,30,2013-02-08 22:30:00
3:52 PM,33.8,33.8,100,29.69,15.0,ENE,4.6,-,N/A,,Mostly Cloudy,60,2013-02-08 22:52:00
4:55 PM,35.6,30.2,81,29.69,15.0,Calm,Calm,-,N/A,,Mostly Cloudy,0,2013-02-08 23:55:00
5:50 PM,33.8,30.2,87,29.72,4.0,South,6.9,-,N/A,,Overcast,180,2013-02-09 00:50:00
6:59 PM,33.8,30.2,87,29.71,15.0,Variable,3.5,-,N/A,,Overcast,0,2013-02-09 01:59:00
7:59 PM,30.2,28.4,93,29.71,15.0,Variable,3.5,-,N/A,,Overcast,0,2013-02-09 02:59:00
8:52 PM,30.2,28.4,93,29.72,15.0,South,5.8,-,N/A,,Mostly Cloudy,180,2013-02-09 03:52:00
9:15 PM,30.2,30.2,100,29.72,10.0,SSE,11.5,-,N/A,,Scattered Clouds,160,2013-02-09 04:15:00
9:35 PM,32.0,26.6,80,29.72,10.0,SSW,11.5,-,N/A,,Mostly Cloudy,200,2013-02-09 04:35:00
9:55 PM,33.8,26.6,75,29.73,10.0,SE,3.5,-,N/A,,Overcast,140,2013-02-09 04:55:00
10:15 PM,32.0,28.4,87,29.73,10.0,NE,5.8,-,N/A,,Overcast,40,2013-02-09 05:15:00
10:35 PM,32.0,28.4,87,29.73,10.0,NE,6.9,-,N/A,,Overcast,50,2013-02-09 05:35:00
10:55 PM,32.0,28.4,87,29.73,10.0,NE,6.9,-,N/A,,Overcast,40,2013-02-09 05:55:00
11:15 PM,32.0,28.4,87,29.72,10.0,NNE,5.8,-,N/A,,Overcast,20,2013-02-09 06:15:00
11:35 PM,32.0,28.4,87,29.71,10.0,North,6.9,-,N/A,,Overcast,350,2013-02-09 06:35:00
11:55 PM,32.0,28.4,87,29.71,10.0,North,3.5,-,N/A,,Mostly Cloudy,10,2013-02-09 06:55:00